Powrót do katalogu

VIGORIDE 5

AktywnyNaukaSSO
NORAD 55056·PAYLOAD·🇺🇸 United States

Wystrzelony Jan 3, 2023 z Cape Canaveral Space Force Station

Loading…

Następne Przeloty (najbliższe 24 godziny)

TLE

ŚwieżeSource: Space-Track

Epoka: Sep 14, 2026, 11:17 UTC

1 55056U 23001AZ  26257.47043102  .00071080  00000-0  57619-3 0  9997
2 55056  97.3136 332.5074 0006394 183.9049 176.2165 15.70525254206633

Śledź VIGORIDE 5 w czasie rzeczywistym z AllMySat

Download on the App Store